sat.trackr.live / text

‹ back to catalog

KUIPER-00607

NORAD 69290 · 2026-118Z

PAYLOAD ACTIVE UNKNOWN

§ Identity

Operator
Country
US
Launch date
2026-05-29
Launch site
AFETR
Launch vehicle
Mass (kg)
RCS (m²)

External: N2YO · Heavens-Above · Gunter

§ Orbital elements

Epoch: 2026-09-20T04:03:50.107680Z

Period
97.30 min
Inclination
51.9022°
Eccentricity
0.0001359
Mean motion
14.79936963 rev/d
Perigee alt
628.6 km
Apogee alt
630.5 km
Semi-major
7,007.7 km
B*
2.5579e-4
RAAN
325.6641°
Arg perigee
17.7277°
Mean anomaly
342.3732°
Rev number
1,843

§ Raw data

KUIPER-006071 69290U 26118Z   26263.16932995  .00001729  00000+0  25579-3 0  99962 69290  51.9022 325.6641 0001359  17.7277 342.3732 14.79936963 18430

JSON: /api/v1/satellites/69290 · /tle

For live sub-satellite position, see the globe view (requires WebGL).

§ Visibility from observer

Set your observer location to see the next 7 days of passes ≥ 10°. The values pass through the URL so the page stays shareable.

No JS? Fill the form by hand. The geolocation button needs JavaScript.